BCS93A LEMD-GMTT

Flight info

Callsign BCS93A
Flight time 1h 0m
Altitude 35000
Route VTB N10 LINTO DCT NOLRO
Aircraft A306/H-SDE3FGHIRWY/LB1

Departure

Time 2026-05-07 21:04
Airport Adolfo Suárez Madrid–Barajas Airport (LEMD)

Arrival

Time 2026-05-07 22:04
Airport Tangier Ibn Battuta Airport (GMTT)
Time Latitude Longitude Altitude Speed Heading
2026-05-07 20:20 40.45912 -3.56387 1973 ft 0 kts 180°
2026-05-07 20:52 40.45913 -3.56387 1973 ft 0 kts 180°
2026-05-07 20:56 40.45902 -3.56400 1979 ft 5 kts 237°
2026-05-07 20:57 40.45875 -3.56490 1976 ft 14 kts 260°
2026-05-07 20:57 40.45927 -3.56594 1980 ft 13 kts
2026-05-07 20:57 40.46005 -3.56515 1978 ft 14 kts 51°
2026-05-07 20:57 40.46084 -3.56502 1979 ft 13 kts 359°
2026-05-07 20:58 40.46188 -3.56512 1978 ft 17 kts
2026-05-07 20:58 40.46299 -3.56566 1982 ft 15 kts 313°
2026-05-07 20:58 40.46377 -3.56591 1978 ft 11 kts
2026-05-07 20:58 40.46469 -3.56583 1978 ft 15 kts 355°
2026-05-07 20:59 40.46581 -3.56574 1979 ft 21 kts
2026-05-07 20:59 40.46740 -3.56558 1981 ft 27 kts
2026-05-07 20:59 40.46947 -3.56546 1983 ft 31 kts 359°
2026-05-07 20:59 40.47150 -3.56638 1987 ft 31 kts 327°
2026-05-07 21:00 40.47331 -3.56810 1995 ft 33 kts 322°
2026-05-07 21:00 40.47522 -3.57004 1999 ft 37 kts 322°
2026-05-07 21:00 40.47732 -3.57220 2005 ft 38 kts 319°
2026-05-07 21:00 40.47930 -3.57419 2009 ft 38 kts 323°
2026-05-07 21:01 40.48154 -3.57647 2001 ft 44 kts 320°
2026-05-07 21:01 40.48411 -3.57895 1998 ft 48 kts 329°
2026-05-07 21:01 40.48639 -3.58048 2006 ft 26 kts 354°
2026-05-07 21:01 40.48837 -3.58043 2009 ft 30 kts 357°
2026-05-07 21:02 40.49043 -3.58058 2006 ft 32 kts 359°
2026-05-07 21:02 40.49236 -3.57975 2003 ft 31 kts 70°
2026-05-07 21:02 40.49242 -3.57686 1996 ft 35 kts 93°
2026-05-07 21:02 40.49347 -3.57434 1989 ft 23 kts 34°
2026-05-07 21:03 40.49485 -3.57471 1993 ft 22 kts 336°
2026-05-07 21:03 40.49664 -3.57474 1993 ft 47 kts
2026-05-07 21:03 40.50245 -3.57458 1995 ft 119 kts 359°
2026-05-07 21:03 40.51303 -3.57470 2002 ft 185 kts 359°
2026-05-07 21:04 40.52721 -3.57518 2657 ft 215 kts 359°
2026-05-07 21:04 40.54265 -3.57796 3720 ft 228 kts 346°
2026-05-07 21:04 40.55714 -3.58510 4901 ft 223 kts 331°
2026-05-07 21:04 40.56992 -3.59669 5631 ft 234 kts 320°
2026-05-07 21:05 40.58287 -3.61046 6602 ft 236 kts 320°
2026-05-07 21:05 40.59655 -3.62457 6884 ft 270 kts 320°
2026-05-07 21:05 40.61070 -3.64081 7482 ft 283 kts 314°
2026-05-07 21:05 40.62492 -3.66101 7593 ft 316 kts 314°
2026-05-07 21:06 40.64165 -3.68043 8343 ft 321 kts 319°
2026-05-07 21:06 40.65707 -3.70061 9773 ft 301 kts 306°
2026-05-07 21:06 40.66720 -3.72381 10955 ft 292 kts 287°
2026-05-07 21:06 40.66985 -3.75105 11132 ft 316 kts 264°
2026-05-07 21:07 40.66338 -3.78023 10864 ft 351 kts 241°
2026-05-07 21:07 40.64806 -3.80566 11424 ft 353 kts 220°
2026-05-07 21:07 40.62809 -3.82153 13109 ft 322 kts 201°
2026-05-07 21:07 40.60735 -3.82731 14670 ft 300 kts 183°
2026-05-07 21:08 40.58636 -3.82452 15220 ft 312 kts 167°
2026-05-07 21:08 40.56505 -3.81316 14917 ft 350 kts 151°
2026-05-07 21:08 40.54484 -3.79316 14907 ft 375 kts 137°
2026-05-07 21:08 40.52850 -3.76708 15966 ft 363 kts 124°
2026-05-07 21:09 40.51894 -3.74922 16717 ft 357 kts 132°
2026-05-07 21:09 40.49170 -3.72430 17323 ft 366 kts 161°
2026-05-07 21:09 40.46660 -3.71567 17586 ft 378 kts 169°
2026-05-07 21:09 40.44045 -3.71091 17836 ft 391 kts 176°
2026-05-07 21:10 40.42188 -3.70918 18013 ft 399 kts 178°
2026-05-07 21:10 40.38447 -3.70846 18347 ft 414 kts 182°
2026-05-07 21:10 40.36523 -3.70920 18556 ft 418 kts 185°
2026-05-07 21:10 40.32684 -3.71854 19076 ft 422 kts 200°
2026-05-07 21:11 40.30872 -3.72818 19371 ft 423 kts 206°
2026-05-07 21:11 40.28225 -3.74545 19804 ft 426 kts 210°
2026-05-07 21:11 40.23097 -3.78514 20689 ft 430 kts 214°
2026-05-07 21:12 40.20576 -3.80566 21129 ft 433 kts 214°
2026-05-07 21:12 40.18012 -3.82647 21569 ft 435 kts 214°
2026-05-07 21:12 40.15424 -3.84725 22023 ft 437 kts 214°
2026-05-07 21:12 40.12810 -3.86798 22458 ft 440 kts 214°
2026-05-07 21:13 40.10179 -3.88866 22881 ft 442 kts 214°
2026-05-07 21:13 40.07531 -3.90935 23299 ft 445 kts 214°
2026-05-07 21:13 40.04860 -3.93015 23674 ft 447 kts 215°
2026-05-07 21:13 40.02188 -3.95092 24042 ft 448 kts 215°
2026-05-07 21:14 39.99516 -3.97167 24385 ft 449 kts 215°
2026-05-07 21:14 39.96857 -3.99232 24738 ft 450 kts 215°
2026-05-07 21:14 39.94158 -4.01327 25070 ft 451 kts 215°
2026-05-07 21:14 39.91454 -4.03424 25388 ft 452 kts 215°
2026-05-07 21:15 39.88752 -4.05518 25734 ft 453 kts 215°
2026-05-07 21:15 39.86024 -4.07632 26044 ft 455 kts 215°
2026-05-07 21:15 39.83297 -4.09742 26348 ft 456 kts 215°
2026-05-07 21:15 39.80567 -4.11853 26638 ft 457 kts 215°
2026-05-07 21:16 39.77825 -4.13971 26926 ft 458 kts 215°
2026-05-07 21:16 39.75087 -4.16083 27352 ft 456 kts 215°
2026-05-07 21:16 39.72397 -4.18155 27787 ft 454 kts 215°
2026-05-07 21:16 39.69684 -4.20243 28239 ft 452 kts 215°
2026-05-07 21:17 39.66983 -4.22320 28685 ft 449 kts 215°
2026-05-07 21:17 39.64301 -4.24382 29106 ft 448 kts 215°
2026-05-07 21:17 39.61614 -4.26445 29519 ft 446 kts 215°
2026-05-07 21:17 39.58945 -4.28493 29948 ft 445 kts 216°
2026-05-07 21:18 39.56286 -4.30532 30311 ft 443 kts 216°
2026-05-07 21:18 39.53638 -4.32560 30714 ft 440 kts 216°
2026-05-07 21:18 39.51011 -4.34570 31146 ft 436 kts 216°
2026-05-07 21:18 39.48410 -4.36558 31589 ft 433 kts 216°
2026-05-07 21:19 39.45819 -4.38538 32004 ft 430 kts 216°
2026-05-07 21:19 39.43272 -4.40482 32397 ft 427 kts 216°
2026-05-07 21:19 39.40722 -4.42427 32804 ft 424 kts 216°
2026-05-07 21:19 39.38186 -4.44359 33201 ft 421 kts 216°
2026-05-07 21:20 39.35665 -4.46280 33612 ft 419 kts 216°
2026-05-07 21:20 39.33156 -4.48188 34014 ft 415 kts 216°
2026-05-07 21:20 39.30665 -4.50082 34328 ft 413 kts 216°
2026-05-07 21:20 39.28229 -4.51932 34592 ft 413 kts 216°
2026-05-07 21:21 39.25759 -4.53807 34839 ft 412 kts 216°
2026-05-07 21:21 39.23266 -4.55700 34920 ft 412 kts 216°
2026-05-07 21:21 39.18321 -4.59446 34911 ft 411 kts 216°
2026-05-07 21:22 39.13381 -4.63181 34912 ft 411 kts 216°
2026-05-07 21:22 39.08441 -4.66911 34911 ft 411 kts 216°
2026-05-07 21:23 39.03544 -4.70602 34906 ft 410 kts 216°
2026-05-07 21:23 38.98607 -4.74317 34901 ft 411 kts 216°
2026-05-07 21:24 38.93658 -4.78032 34905 ft 411 kts 216°
2026-05-07 21:24 38.88747 -4.81716 34904 ft 411 kts 216°
2026-05-07 21:25 38.83809 -4.85413 34904 ft 410 kts 216°
2026-05-07 21:25 38.78862 -4.89112 34903 ft 410 kts 216°
2026-05-07 21:26 38.73929 -4.92794 34901 ft 410 kts 215°
2026-05-07 21:26 38.69017 -4.96455 34907 ft 410 kts 215°
2026-05-07 21:27 38.64072 -5.00134 34903 ft 410 kts 215°
2026-05-07 21:27 38.59160 -5.03781 34906 ft 410 kts 215°
2026-05-07 21:28 38.54217 -5.07445 34909 ft 410 kts 215°
2026-05-07 21:28 38.49236 -5.11027 34908 ft 412 kts 212°
2026-05-07 21:29 38.44080 -5.14278 34910 ft 414 kts 211°
2026-05-07 21:29 38.38878 -5.17439 34914 ft 414 kts 211°
2026-05-07 21:30 38.33682 -5.20620 34915 ft 414 kts 211°
2026-05-07 21:30 38.28521 -5.23808 34919 ft 414 kts 211°
2026-05-07 21:31 38.23334 -5.27019 34922 ft 414 kts 211°
2026-05-07 21:31 38.18162 -5.30216 34936 ft 414 kts 211°
2026-05-07 21:32 38.12983 -5.33411 34920 ft 414 kts 211°
2026-05-07 21:32 38.07793 -5.36608 34936 ft 414 kts 211°
2026-05-07 21:33 38.02601 -5.39799 34934 ft 414 kts 211°
2026-05-07 21:33 37.97413 -5.42982 34936 ft 414 kts 211°
2026-05-07 21:34 37.92263 -5.46136 34933 ft 414 kts 211°
2026-05-07 21:34 37.87057 -5.49322 34935 ft 414 kts 211°
2026-05-07 21:35 37.81893 -5.52476 34934 ft 414 kts 211°
2026-05-07 21:35 37.76706 -5.55638 34934 ft 414 kts 210°
2026-05-07 21:36 37.71206 -5.58002 34932 ft 423 kts 197°
2026-05-07 21:36 37.65250 -5.58394 34936 ft 434 kts 185°
2026-05-07 21:37 37.59252 -5.58067 34944 ft 435 kts 184°
2026-05-07 21:37 37.53199 -5.57729 34940 ft 434 kts 184°
2026-05-07 21:38 37.47139 -5.57410 34935 ft 434 kts 184°
2026-05-07 21:38 37.41106 -5.57093 34940 ft 433 kts 184°
2026-05-07 21:39 37.35115 -5.56778 34944 ft 433 kts 185°
2026-05-07 21:39 37.29089 -5.56462 34946 ft 433 kts 185°
2026-05-07 21:40 37.23069 -5.56146 34945 ft 432 kts 185°
2026-05-07 21:40 37.17081 -5.55834 34942 ft 432 kts 185°
2026-05-07 21:41 37.14072 -5.55677 34773 ft 432 kts 184°
2026-05-07 21:41 37.11062 -5.55521 34539 ft 432 kts 184°
2026-05-07 21:41 37.08052 -5.55364 34297 ft 433 kts 184°
2026-05-07 21:41 37.05034 -5.55207 34067 ft 434 kts 184°
2026-05-07 21:42 37.02002 -5.55049 33805 ft 435 kts 184°
2026-05-07 21:42 36.99013 -5.54894 33543 ft 436 kts 184°
2026-05-07 21:42 36.95983 -5.54737 33050 ft 435 kts 184°
2026-05-07 21:42 36.92963 -5.54578 32346 ft 433 kts 184°
2026-05-07 21:43 36.89961 -5.54420 31823 ft 428 kts 184°
2026-05-07 21:43 36.86994 -5.54264 31258 ft 424 kts 184°
2026-05-07 21:43 36.84056 -5.54112 30690 ft 421 kts 183°
2026-05-07 21:43 36.81138 -5.53961 30153 ft 417 kts 183°
2026-05-07 21:44 36.78274 -5.53813 29554 ft 414 kts 183°
2026-05-07 21:44 36.75366 -5.53668 28943 ft 411 kts 183°
2026-05-07 21:44 36.72565 -5.53521 28382 ft 407 kts 183°
2026-05-07 21:44 36.69741 -5.53374 27835 ft 403 kts 184°
2026-05-07 21:45 36.66952 -5.53228 27298 ft 399 kts 184°
2026-05-07 21:45 36.64193 -5.53085 26775 ft 395 kts 184°
2026-05-07 21:45 36.61449 -5.52944 26278 ft 392 kts 184°
2026-05-07 21:45 36.58734 -5.52796 25782 ft 389 kts 183°
2026-05-07 21:46 36.56032 -5.52657 25292 ft 386 kts 184°
2026-05-07 21:46 36.53358 -5.52523 24807 ft 383 kts 184°
2026-05-07 21:46 36.50738 -5.52390 24370 ft 379 kts 184°
2026-05-07 21:46 36.48107 -5.52257 23927 ft 376 kts 184°
2026-05-07 21:47 36.45525 -5.52125 23487 ft 374 kts 184°
2026-05-07 21:47 36.42934 -5.51993 22967 ft 371 kts 184°
2026-05-07 21:47 36.40356 -5.51860 22469 ft 368 kts 183°
2026-05-07 21:47 36.37811 -5.51730 21988 ft 364 kts 183°
2026-05-07 21:48 36.35289 -5.51603 21456 ft 363 kts 183°
2026-05-07 21:48 36.32775 -5.51475 20961 ft 361 kts 182°
2026-05-07 21:48 36.30267 -5.51347 20515 ft 357 kts 182°
2026-05-07 21:48 36.27823 -5.51222 20048 ft 355 kts 182°
2026-05-07 21:49 36.25356 -5.51097 19587 ft 353 kts 182°
2026-05-07 21:49 36.22909 -5.50975 19162 ft 350 kts 182°
2026-05-07 21:49 36.20468 -5.50852 18511 ft 350 kts 181°
2026-05-07 21:49 36.18096 -5.50729 17749 ft 340 kts 181°
2026-05-07 21:50 36.15766 -5.50607 16967 ft 331 kts 181°
2026-05-07 21:50 36.13465 -5.50489 16186 ft 322 kts 181°
2026-05-07 21:50 36.11277 -5.50377 15449 ft 315 kts 181°
2026-05-07 21:50 36.09115 -5.50265 14732 ft 308 kts 181°
2026-05-07 21:51 36.06958 -5.50157 14011 ft 303 kts 181°
2026-05-07 21:51 36.04889 -5.50054 13266 ft 299 kts 180°
2026-05-07 21:51 36.02829 -5.49950 12482 ft 294 kts 180°
2026-05-07 21:51 36.00794 -5.49848 11718 ft 290 kts 180°
2026-05-07 21:52 35.98784 -5.49746 10983 ft 287 kts 180°
2026-05-07 21:52 35.96796 -5.49646 10257 ft 284 kts 179°
2026-05-07 21:52 35.94849 -5.49548 9525 ft 282 kts 179°
2026-05-07 21:52 35.92876 -5.49448 8741 ft 279 kts 179°
2026-05-07 21:53 35.90973 -5.49352 8017 ft 276 kts 179°
2026-05-07 21:53 35.89064 -5.49254 7479 ft 265 kts 179°
2026-05-07 21:53 35.87276 -5.49164 6993 ft 256 kts 179°
2026-05-07 21:53 35.85539 -5.49076 6499 ft 250 kts 179°
2026-05-07 21:54 35.83776 -5.49025 6021 ft 253 kts 183°
2026-05-07 21:54 35.82010 -5.49204 5554 ft 256 kts 188°
2026-05-07 21:54 35.80307 -5.49761 5170 ft 254 kts 204°
2026-05-07 21:54 35.78904 -5.51070 4803 ft 256 kts 229°
2026-05-07 21:55 35.78086 -5.53020 4404 ft 254 kts 249°
2026-05-07 21:55 35.77397 -5.54929 4119 ft 236 kts 234°
2026-05-07 21:55 35.76334 -5.56237 3993 ft 218 kts 211°
2026-05-07 21:55 35.74989 -5.56873 3985 ft 201 kts 188°
2026-05-07 21:56 35.73663 -5.56823 3995 ft 186 kts 168°
2026-05-07 21:56 35.72467 -5.56247 3993 ft 185 kts 156°
2026-05-07 21:56 35.71290 -5.55614 3984 ft 182 kts 164°
2026-05-07 21:56 35.70102 -5.55622 3981 ft 170 kts 207°
2026-05-07 21:57 35.69419 -5.56745 3989 ft 172 kts 259°
2026-05-07 21:57 35.69676 -5.58195 4012 ft 179 kts 288°
2026-05-07 21:57 35.70051 -5.59642 3990 ft 174 kts 280°
2026-05-07 21:57 35.70267 -5.61061 3979 ft 168 kts 275°
2026-05-07 21:58 35.70414 -5.62494 3997 ft 169 kts 273°
2026-05-07 21:58 35.70545 -5.63926 3992 ft 168 kts 273°
2026-05-07 21:58 35.70678 -5.65353 3994 ft 168 kts 273°
2026-05-07 21:58 35.70813 -5.66783 3972 ft 169 kts 273°
2026-05-07 21:59 35.70951 -5.68215 3802 ft 167 kts 274°
2026-05-07 21:59 35.71082 -5.69619 3574 ft 164 kts 274°
2026-05-07 21:59 35.71210 -5.71022 3308 ft 165 kts 274°
2026-05-07 21:59 35.71341 -5.72430 3078 ft 166 kts 275°
2026-05-07 22:00 35.71428 -5.73363 2917 ft 166 kts 275°
2026-05-07 22:00 35.71559 -5.74772 2704 ft 165 kts 275°
2026-05-07 22:00 35.71688 -5.76171 2481 ft 164 kts 276°
2026-05-07 22:00 35.71816 -5.77558 2248 ft 159 kts 276°
2026-05-07 22:01 35.71937 -5.78856 2032 ft 148 kts 276°
2026-05-07 22:01 35.72051 -5.80099 1850 ft 146 kts 276°
2026-05-07 22:01 35.72166 -5.81333 1660 ft 145 kts 276°
2026-05-07 22:01 35.72281 -5.82572 1457 ft 145 kts 276°
2026-05-07 22:02 35.72377 -5.83803 1263 ft 143 kts 271°
2026-05-07 22:02 35.72498 -5.85027 1057 ft 146 kts 278°
2026-05-07 22:02 35.72626 -5.86263 857 ft 145 kts 275°
2026-05-07 22:02 35.72742 -5.87497 675 ft 145 kts 275°
2026-05-07 22:03 35.72841 -5.88746 463 ft 148 kts 275°
2026-05-07 22:03 35.72966 -5.89992 215 ft 145 kts 274°
2026-05-07 22:03 35.73075 -5.91185 65 ft 135 kts 274°
2026-05-07 22:03 35.73170 -5.92190 66 ft 99 kts 275°
2026-05-07 22:04 35.73229 -5.92820 59 ft 50 kts 281°
2026-05-07 22:04 35.73253 -5.93054 63 ft 17 kts 276°
2026-05-07 22:04 35.73262 -5.93199 58 ft 17 kts 262°
2026-05-07 22:04 35.73229 -5.93303 58 ft 6 kts 205°
2026-05-07 22:05 35.73192 -5.93314 61 ft 7 kts 179°
2026-05-07 22:05 35.73127 -5.93288 61 ft 17 kts 151°
2026-05-07 22:05 35.73083 -5.93142 62 ft 25 kts 98°
2026-05-07 22:05 35.73059 -5.92935 59 ft 25 kts 97°
2026-05-07 22:06 35.73050 -5.92781 66 ft 0 kts 93°
2026-05-07 22:06 35.73047 -5.92743 64 ft 10 kts 97°
2026-05-07 22:06 35.73029 -5.92607 58 ft 21 kts 98°
2026-05-07 22:06 35.73009 -5.92404 65 ft 27 kts 97°
2026-05-07 22:07 35.72983 -5.92150 66 ft 33 kts 97°
2026-05-07 22:07 35.72964 -5.91887 64 ft 15 kts 99°
2026-05-07 22:07 35.72920 -5.91746 63 ft 16 kts 144°
2026-05-07 22:07 35.72792 -5.91712 66 ft 22 kts 174°
2026-05-07 22:08 35.72673 -5.91696 66 ft 8 kts 168°
2026-05-07 22:08 35.72647 -5.91654 60 ft 5 kts 96°
2026-05-07 22:08 35.72645 -5.91619 60 ft 4 kts 91°
2026-05-07 22:08 35.72646 -5.91609 63 ft 0 kts 86°